Location: Allie Creek
(37.5926°N, 89.8526°W)
Time: 19:58:33
(UTC+00:00)

Cosmos 2084 Rocket - Pass Details

Date: 26 September 2023
Orbit: 501 x 654 km, 62.8° (Epoch: 10 December)

Event Time Altitude Azimuth Distance (km) Brightness Sun altitude
Exits shadow 09:06:00 19° 88° (E) 1,333 5.8 -32.3°
Drops below altitude 10° 09:07:53 10° 63° (ENE) 1,806 6.8 -32.0°
Enters shadow 10:09:35 -60° 216° (SW) 11,753 10.0 -20.6°
Maximum altitude 10:43:45 31° 309° (NW) 973 4.2 -14.0°
